GFSWCAN_con_3kmhel_066.txt.gz
Helicity
29 18 10 7 10 16 14 0 -5 1 1 -11 1 -9 38 25 -7 -14 -42 6 -30 52 -19 38 6 6 -9 -2 32 39 42 37 42 45 51 48 59 64 94 75 57 84 104 113 92 91 75 109 104 181 232 154 129 92
33 42 40 32 24 10 13 28 26 24 37 35 0 1 20 16 5 3 18 -29 -56 32 -3 3 -3 21 5 -21 26 -3 26 17 14 36 42 49 48 70 82 96 49 66 66 75 46 48 46 90 76 60 36 6 -1 -14
74 55 46 46 41 25 29 26 21 15 -13 4 45 38 30 10 8 -9 14 26 42 32 18 -21 -38 38 59 9 -8 35 56 49 27 66 44 50 68 51 73 65 80 57 50 83 88 72 69 50 25 52 39 21 1 -7
93 56 41 29 11 -2 -4 8 33 6 14 5 31 64 49 43 45 44 156 194 147 142 46 -30 -84 -22 46 36 16 17 34 44 33 67 54 54 73 64 71 89 87 98 53 64 57 57 58 40 71 77 68 37 34 19
7 1 -4 -2 -3 -3 -4 26 27 46 25 44 45 43 28 42 43 92 202 192 224 131 -13 7 -28 -17 67 8 -3 38 41 16 49 54 43 42 32 34 24 38 44 45 65 59 70 92 88 90 77 45 47 62 40 40
27 2 14 12 16 17 6 11 27 43 61 39 41 31 39 145 121 214 174 190 185 131 82 31 48 15 -5 8 11 82 37 58 68 92 54 44 42 30 33 42 70 80 58 65 67 62 52 42 49 69 59 62 76 68
17 3 -12 11 14 -6 -1 2 43 31 25 40 48 34 83 183 136 236 178 122 260 227 68 42 29 34 -5 96 70 10 28 49 68 62 49 34 29 44 44 21 119 94 80 76 80 61 41 148 85 70 61 57 54 65
6 16 14 10 3 19 14 15 33 32 46 47 29 39 121 141 131 213 186 132 187 167 60 82 65 59 56 110 80 61 51 55 49 59 60 49 41 52 51 144 147 116 107 82 94 81 57 57 109 66 63 56 60 85
-1 -8 17 19 14 11 6 5 7 7 -8 31 34 135 213 191 125 128 62 193 161 120 115 112 70 108 103 89 123 103 61 83 73 72 91 71 64 127 218 194 138 113 101 90 94 90 127 133 116 99 87 87 100 112
67 42 74 61 26 11 46 67 78 110 108 134 244 278 170 151 115 120 100 62 104 140 190 187 76 87 16 40 85 35 53 43 76 95 90 86 106 192 200 185 176 138 146 133 113 130 133 136 123 113 104 92 121 130
36 48 52 79 44 58 79 118 146 134 177 198 146 226 198 211 155 87 40 62 74 108 148 185 164 132 175 83 102 94 84 76 67 90 119 104 105 143 144 139 129 134 162 165 144 158 167 158 141 111 125 140 135 149
26 27 120 74 113 92 100 144 155 156 140 118 238 334 328 126 118 55 45 52 64 76 92 137 127 95 82 91 76 76 70 80 89 140 133 120 115 136 142 145 134 135 132 134 147 146 151 157 139 131 145 160 181 175
2 21 60 64 72 92 62 47 107 -86 164 180 175 181 153 140 105 79 44 44 55 78 77 78 88 63 68 64 44 40 72 118 83 112 135 116 116 151 117 78 87 98 95 105 134 143 150 170 176 158 156 161 168 210
45 35 40 38 50 28 47 110 113 115 93 63 75 55 99 55 41 45 60 79 66 96 103 69 82 29 120 111 61 75 69 71 82 56 59 77 88 92 81 111 105 114 133 130 139 157 179 190 191 186 181 157 160 183
18 75 65 55 -14 -108 -58 47 57 64 4 61 59 38 38 53 93 119 121 122 123 160 142 139 90 139 151 67 102 57 48 51 54 63 79 82 83 91 109 123 132 126 129 152 149 161 166 157 157 163 151 137 132 118
20 9 58 38 61 23 5 17 20 3 6 24 33 59 113 142 128 122 130 124 146 153 159 111 64 68 105 84 63 64 24 13 16 90 107 104 123 132 135 134 136 120 108 95 91 93 93 90 78 68 68 75 76 76
9 25 44 10 42 52 47 22 2 4 13 26 50 94 103 124 145 127 123 130 138 114 78 78 39 31 45 7 3 39 23 96 143 153 150 149 137 130 115 90 73 65 65 62 59 60 56 47 46 61 87 60 65 74
42 46 47 6 11 12 67 27 -3 10 35 72 68 100 103 123 130 111 116 119 91 52 44 17 26 14 7 -11 -20 -22 106 157 171 158 140 115 84 67 60 65 63 64 68 71 73 69 62 60 69 73 67 60 60 68
39 45 41 4 29 4 16 18 36 25 30 72 92 106 109 118 121 118 121 111 99 71 19 8 1 6 5 27 110 126 103 69 64 54 53 58 58 62 70 76 81 84 87 84 77 74 79 94 86 76 73 71 86 76
56 96 65 27 31 9 -6 16 43 31 30 42 71 76 83 93 97 88 88 103 76 42 27 9 10 38 35 10 -17 -20 -13 -2 10 31 46 57 54 68 80 78 87 84 86 89 95 88 91 109 113 114 110 104 99 100
75 93 97 59 59 5 -12 10 13 50 43 41 67 75 74 70 68 70 79 96 51 56 91 85 33 -4 -23 -19 -15 -5 6 10 29 40 75 93 80 88 100 107 109 111 128 131 133 137 138 129 119 106 109 108 102 100
71 94 61 51 16 3 -1 42 21 32 49 53 61 77 78 94 106 112 125 184 179 149 104 -20 -19 -17 -5 10 15 23 39 59 82 95 113 107 136 144 151 144 137 143 136 130 123 120 117 113 106 99 92 89 88 88
86 78 70 43 -6 1 35 107 82 81 49 60 80 69 67 101 127 131 79 193 113 55 -19 -20 -11 7 23 30 49 68 68 79 109 124 133 144 147 140 137 133 121 116 111 109 97 91 92 86 91 90 89 88 87 82
75 68 37 15 17 27 49 49 76 85 75 65 55 61 65 69 57 44 46 5 -14 -16 -7 2 7 30 45 59 75 87 86 91 111 127 109 132 141 131 110 102 93 91 90 83 81 81 82 86 73 79 76 67 60 44
53 63 62 38 75 55 57 45 52 48 20 79 65 36 23 20 -3 -32 -21 -22 -9 0 8 11 20 42 67 77 83 92 76 82 113 131 118 104 104 86 80 76 77 80 66 66 69 72 75 64 56 48 41 35 31 27
78 98 77 70 84 68 76 54 37 42 39 31 -1 -2 -14 -27 -22 -13 -7 8 15 20 28 40 51 66 76 78 90 92 94 75 78 111 103 76 74 68 69 66 63 72 62 62 57 51 48 42 37 32 30 31 32 23
75 61 66 99 81 67 39 59 48 -26 -54 -71 -70 -58 -53 -35 -14 6 30 14 32 32 39 39 45 62 88 95 88 81 69 65 82 95 75 66 62 58 61 59 63 72 57 54 47 39 35 35 35 35 34 31 28 24
88 110 79 112 79 104 44 3 -39 -70 -67 -50 -39 -40 -17 -4 13 29 28 34 52 53 58 67 80 85 91 93 87 86 88 84 82 73 68 66 66 66 66 65 61 56 45 42 37 38 38 36 37 36 32 29 32 32
120 145 129 160 132 89 37 -28 -51 -34 -9 -5 -4 9 19 21 37 52 49 45 45 60 85 100 96 88 92 79 67 67 68 72 71 81 74 72 66 67 58 56 51 47 40 32 37 31 25 30 31 28 29 30 36 38
155 173 95 121 113 65 53 39 33 39 34 21 32 68 149 132 83 55 50 48 55 76 75 74 72 70 92 89 91 76 55 44 49 51 58 64 71 74 64 55 44 38 31 29 29 28 34 31 35 32 32 34 37 40
166 155 127 150 119 128 104 115 99 120 104 143 128 141 127 79 59 36 30 34 51 58 72 82 89 83 90 85 77 76 75 68 66 69 75 86 87 79 68 58 50 42 39 33 31 30 31 31 34 33 33 37 41 40
172 122 105 198 148 110 192 199 182 177 138 115 107 71 61 46 41 16 10 28 49 60 61 70 77 79 58 57 58 62 69 83 80 81 85 85 82 72 63 57 52 44 40 36 35 34 33 30 28 32 34 36 42 44
163 188 248 235 193 172 169 197 191 149 119 90 64 37 39 41 51 31 8 5 20 42 65 63 68 71 73 73 74 73 70 73 77 78 76 72 64 57 53 50 45 42 37 32 32 32 29 30 35 38 39 41 42 45

GFSWCAN_con_3kmhel_069.txt.gz
Helicity
13 16 25 20 12 -1 -5 -2 0 -7 -13 -15 2 -5 22 21 14 -11 -39 -53 -37 60 -23 81 72 65 77 23 45 39 53 23 61 48 38 42 51 42 84 51 38 41 76 84 67 54 75 123 55 143 205 194 194 177
29 16 14 29 29 30 33 25 5 -9 -4 -8 -18 -27 -11 0 33 5 -45 -70 -66 86 17 57 14 54 63 17 28 -14 35 9 20 41 33 44 62 55 78 84 14 42 43 61 37 42 72 136 184 183 177 158 135 121
68 72 77 77 52 15 17 21 24 13 -1 7 46 7 -13 -25 17 59 -16 112 98 7 -31 -17 27 14 17 34 8 25 11 10 19 18 22 43 49 41 46 60 75 14 58 77 73 56 117 119 116 115 103 102 80 40
98 68 74 28 7 16 12 7 13 11 4 -2 30 49 -4 -16 43 82 158 48 74 120 39 23 -5 55 -8 -7 -1 -9 4 33 11 42 29 33 40 62 73 60 109 86 77 53 56 20 64 66 60 57 72 71 44 19
58 30 18 14 15 16 12 16 8 8 26 27 16 35 14 23 20 40 54 59 33 81 29 55 0 22 -10 37 3 -3 -2 21 37 26 15 19 28 51 53 65 62 57 91 77 99 121 159 95 55 71 49 40 37 37
37 16 36 43 -27 12 15 17 26 21 23 18 37 89 59 55 64 224 90 37 63 5 -42 48 19 -25 -16 25 13 4 17 27 34 30 15 15 42 40 33 32 88 129 115 150 90 88 57 51 60 53 40 62 64 48
41 14 16 18 1 -7 7 1 25 32 36 47 48 57 34 90 131 224 135 32 143 79 19 -1 27 37 46 57 4 22 27 55 50 24 38 24 16 19 20 25 64 97 85 62 66 75 33 60 50 43 44 47 46 47
10 22 44 0 -2 4 11 8 3 40 43 45 50 53 124 112 95 104 74 123 150 110 59 30 20 43 51 76 47 60 59 89 27 51 42 8 25 21 13 89 106 113 99 52 79 41 60 74 66 58 50 55 39 47
-10 7 13 5 3 14 23 10 27 18 32 37 91 137 207 120 133 123 102 181 202 109 47 48 24 47 60 109 79 72 54 65 51 69 56 59 45 84 123 110 96 102 100 85 73 71 56 54 60 73 82 95 97 108
0 33 9 7 26 45 43 46 38 26 71 117 401 236 140 93 169 176 172 137 109 97 68 90 60 54 23 62 70 69 57 54 68 83 60 77 94 106 111 90 116 116 105 89 91 150 137 121 89 91 111 132 137 139
13 60 14 11 58 51 72 104 146 173 226 292 246 249 179 74 157 111 91 115 121 85 39 48 44 72 107 44 75 84 87 76 59 62 65 60 83 97 119 131 125 124 107 109 102 113 144 161 174 157 163 188 186 175
22 53 97 99 118 94 70 90 106 165 216 222 281 303 261 144 86 64 93 122 116 80 122 123 140 79 77 112 78 86 55 75 77 76 64 71 112 141 137 113 117 124 144 147 155 162 171 182 190 191 189 191 193 209
-3 27 30 68 89 81 52 74 37 -26 136 316 218 116 80 59 63 81 87 107 77 120 144 172 174 145 120 127 95 73 63 62 79 81 129 145 160 152 129 107 123 153 130 126 149 162 174 199 221 202 207 222 231 252
3 19 42 67 82 86 60 101 150 159 179 240 153 91 99 56 56 43 95 102 86 120 142 160 169 165 105 92 66 46 70 61 67 51 79 148 122 100 97 105 101 96 98 123 133 143 153 172 201 213 214 204 206 221
11 39 36 48 43 26 99 125 104 51 117 122 115 68 51 40 61 100 119 98 89 133 139 153 142 80 96 61 77 59 51 52 93 106 134 108 94 91 90 92 93 101 96 114 131 150 149 137 143 158 153 147 149 137
44 32 -1 -26 -43 20 13 -38 54 21 54 28 36 30 94 79 87 110 147 101 143 161 161 112 48 41 96 75 63 64 43 62 66 89 106 112 121 118 116 120 125 125 127 120 107 96 92 95 96 95 87 89 85 81
54 40 -6 -62 -53 -20 30 -5 14 -3 34 54 53 100 104 100 88 85 118 134 144 166 121 86 58 69 75 77 76 133 86 121 130 153 152 145 145 142 121 116 105 91 86 77 72 69 66 56 49 62 85 68 72 77
27 2 -5 15 51 31 58 25 1 4 57 110 81 91 65 96 89 91 127 131 96 82 95 69 61 55 49 11 -15 71 132 150 146 167 162 131 112 93 79 82 76 71 75 76 72 69 61 50 61 75 72 72 69 75
32 34 -11 -7 34 12 21 27 34 37 66 102 98 99 103 97 93 111 118 105 88 79 45 33 1 -2 -4 20 74 95 119 129 107 74 60 59 59 62 67 74 83 97 106 105 103 105 107 134 113 102 96 90 108 85
71 73 25 -27 13 5 14 24 48 40 58 80 97 84 96 107 109 106 105 129 89 38 17 9 21 70 131 152 97 42 15 13 18 30 42 52 60 79 100 106 114 110 112 110 116 96 95 114 115 121 123 121 108 107
23 47 41 32 43 18 -4 17 27 45 48 61 84 73 76 69 69 76 71 82 54 35 33 63 54 51 18 4 -1 6 20 14 26 35 69 85 85 96 108 114 118 124 138 136 130 129 140 129 116 109 109 116 111 110
56 75 44 36 12 4 -4 45 23 37 48 45 51 61 54 58 55 69 77 74 73 147 99 22 3 -7 7 14 16 24 37 54 74 92 111 86 113 127 140 137 141 150 142 132 126 122 119 123 113 104 99 95 91 99
82 61 45 22 -6 0 7 86 61 70 46 47 76 58 50 52 58 77 54 142 115 91 5 -13 -2 14 31 39 50 61 64 76 91 101 109 116 118 115 129 132 117 122 113 109 98 97 104 84 96 90 86 78 83 84
71 45 32 14 3 0 36 41 59 73 72 71 53 55 76 93 89 89 74 55 -12 -21 -8 7 13 32 45 59 78 83 85 87 101 109 104 115 132 134 117 118 105 96 95 91 88 89 87 90 67 75 76 63 69 55
39 47 35 1 16 36 42 49 61 72 53 80 72 71 73 81 57 24 -12 -26 -14 -2 9 17 29 44 75 85 83 86 75 81 108 127 110 107 120 109 106 96 92 87 66 65 76 76 81 70 63 57 49 44 43 34
20 46 51 43 60 63 63 53 50 64 85 78 45 49 59 -9 -21 -22 -15 7 20 30 38 50 66 81 90 78 92 100 93 80 84 127 118 91 101 101 99 87 74 89 70 66 59 54 57 53 46 40 33 39 44 30
39 42 54 90 99 72 46 75 96 51 9 -37 -59 -39 -43 -41 -29 -17 44 41 53 61 63 62 62 74 89 93 93 85 82 88 110 121 95 90 88 86 92 92 88 97 63 60 57 53 51 46 40 39 38 38 37 39
64 110 86 114 101 144 138 79 44 -2 -87 -50 -53 -63 -41 -24 -1 47 32 63 70 72 78 83 81 83 93 91 86 88 93 89 87 82 80 80 81 83 81 82 78 68 57 54 52 45 44 45 41 41 41 40 41 36
109 137 122 178 171 117 90 62 -5 -45 -7 -1 -17 -5 8 28 53 72 78 73 66 71 89 92 90 85 91 87 85 85 80 79 90 96 83 83 77 92 73 69 64 57 47 42 56 42 41 42 43 42 38 37 38 38
140 163 113 143 141 92 75 66 38 46 40 39 44 79 155 155 135 71 74 71 80 93 87 86 78 79 100 104 113 107 77 66 68 68 72 85 98 98 81 73 62 58 46 43 43 43 48 40 39 38 34 35 33 37
152 148 142 161 130 122 86 66 97 146 156 149 109 145 142 104 69 59 64 64 72 75 82 92 95 90 109 111 109 103 98 77 73 79 81 91 92 86 79 68 59 52 50 47 46 45 48 40 40 39 36 38 40 41
151 124 114 181 143 92 154 152 222 223 192 172 153 126 111 93 85 40 22 44 59 83 81 82 96 111 91 86 85 90 100 85 80 79 82 81 81 70 57 52 49 48 47 44 45 45 44 42 42 43 44 43 51 53
129 142 178 211 200 171 176 200 211 193 154 134 113 90 92 82 77 46 28 39 76 83 85 97 99 100 100 94 87 78 82 84 91 90 80 70 58 46 37 45 47 46 43 43 43 46 46 44 47 48 49 51 51 52

GFSWCAN_con_3kmhel_072.txt.gz
Helicity
12 12 24 25 15 7 8 -3 -12 -23 -20 -13 -6 14 -8 16 17 -1 -47 67 -69 3 9 52 82 92 166 47 36 32 76 78 69 48 6 19 27 38 69 -0 -7 37 72 53 14 29 59 28 27 42 26 46 127 142
28 33 25 26 49 35 20 17 16 14 -10 -18 -15 -10 22 -3 -3 28 -30 -87 24 66 19 90 21 46 112 99 23 -14 86 64 50 29 9 21 36 15 58 61 -48 1 29 35 27 49 99 150 217 274 231 236 209 161
34 25 49 75 80 58 58 35 24 23 29 6 -12 -9 3 6 8 54 -2 36 73 39 -39 -55 -42 44 51 16 -24 9 3 -0 6 35 -14 1 35 50 44 39 43 30 53 14 1 174 180 237 265 241 233 178 143 119
36 51 92 90 31 13 12 1 21 16 9 10 12 7 11 -7 6 10 42 -30 100 127 4 5 31 56 93 39 1 -26 17 24 27 8 5 -6 31 47 60 41 60 51 45 59 67 129 143 186 169 131 129 116 102 66
67 55 45 22 1 17 16 18 27 18 16 7 3 18 19 17 11 23 19 -32 9 87 57 102 57 92 -6 6 20 20 9 15 -3 15 8 -3 4 48 27 126 127 79 131 130 100 124 20 40 82 80 63 28 19 67
41 26 22 5 28 28 34 31 29 18 25 23 30 13 41 68 -0 205 284 96 25 -25 -42 60 47 51 24 -6 3 -2 -5 -6 10 13 18 1 -20 17 82 73 174 197 145 215 104 109 40 11 60 56 21 35 43 62
25 23 4 23 21 17 19 7 23 30 27 38 33 36 80 43 98 208 99 26 34 95 16 37 61 38 -7 11 5 24 19 17 21 2 -4 2 18 22 6 44 71 130 116 116 128 88 52 68 35 48 53 45 53 63
47 26 18 -0 13 28 31 20 12 35 39 40 68 95 161 129 153 164 125 25 125 96 23 20 51 27 20 70 71 57 35 32 8 31 11 10 13 20 13 63 69 83 100 73 82 -0 16 5 40 49 46 50 36 41
-0 1 -14 2 3 15 26 33 19 31 56 89 84 108 158 135 125 129 89 15 161 109 14 2 24 28 69 64 67 59 48 44 27 14 33 40 45 61 47 56 46 68 80 72 69 94 107 80 65 58 78 91 80 68
14 7 36 -17 6 7 32 16 12 62 109 166 265 171 110 73 91 118 121 105 82 62 36 31 41 35 48 90 104 51 33 46 29 33 54 76 49 78 84 56 73 72 78 85 83 97 105 116 107 85 112 139 137 133
21 55 46 4 7 -2 8 48 109 193 225 236 190 151 113 76 111 92 89 88 79 53 6 -8 14 53 33 72 95 85 76 32 20 29 49 50 68 91 118 122 104 108 113 106 128 122 131 126 129 137 132 158 180 193
38 33 52 58 46 98 101 118 126 196 145 152 173 174 176 123 85 74 108 97 74 65 45 33 54 68 54 68 72 90 74 60 63 74 58 48 92 128 116 97 105 116 113 115 145 153 160 174 174 173 158 156 175 186
1 23 7 1 124 170 126 135 120 32 104 242 284 146 117 54 88 83 78 114 73 110 91 90 75 58 50 67 77 63 57 60 53 64 96 103 149 114 105 86 94 111 118 122 140 140 142 185 199 168 170 165 177 204
44 71 62 49 95 132 142 189 184 214 210 247 223 176 105 97 86 92 146 123 98 107 127 147 177 117 80 76 63 54 81 53 30 17 98 127 95 96 98 104 93 96 97 101 110 123 131 138 146 149 149 129 127 150
44 68 110 114 75 63 64 87 107 172 113 160 171 108 69 55 71 66 83 87 123 111 178 134 161 131 135 87 75 50 61 75 96 100 149 129 112 87 81 88 96 99 94 102 103 108 110 100 105 114 104 98 104 107
34 37 69 79 75 47 41 72 71 94 123 78 84 59 101 39 83 143 104 91 111 136 159 146 98 100 85 69 56 95 83 70 66 93 100 112 122 116 108 105 93 73 63 59 56 55 55 55 60 67 64 69 75 78
91 8 -19 -3 27 56 59 16 45 63 53 37 52 139 108 112 103 113 139 133 134 166 125 106 85 68 40 47 43 102 115 133 145 145 126 123 106 92 79 66 54 46 46 50 58 63 64 51 38 58 85 56 59 56
49 -18 -39 -43 -7 -7 20 -22 -13 1 4 70 77 71 108 157 113 123 180 207 129 94 42 45 53 80 77 52 64 127 142 151 147 128 112 118 100 63 47 57 62 72 84 90 88 79 69 44 56 65 47 40 24 39
12 -28 -20 38 12 -18 17 26 16 49 67 89 83 86 73 82 89 122 146 101 121 132 85 61 48 48 20 39 120 111 103 102 112 132 88 60 55 59 66 74 94 112 125 124 125 121 120 154 142 116 93 83 112 107
65 43 -21 -23 22 10 23 25 43 52 55 66 81 65 79 77 93 95 106 108 69 47 29 14 8 51 78 107 114 99 75 27 18 32 40 40 51 79 102 100 98 90 102 110 125 108 93 98 108 125 150 160 170 158
27 31 24 13 15 9 12 20 45 60 63 64 70 73 78 67 87 87 86 92 53 33 5 9 75 106 89 46 19 23 15 6 18 40 69 83 78 85 100 108 115 125 130 150 146 141 167 169 139 126 129 138 131 139
32 43 39 38 21 13 10 42 31 46 65 64 68 67 50 51 59 73 71 73 35 74 56 42 29 27 41 42 30 31 40 62 89 114 113 85 109 125 143 128 135 157 162 159 159 155 146 155 135 105 103 101 111 135
71 64 58 33 10 13 21 87 63 59 30 27 51 35 32 31 45 40 11 66 95 89 57 44 37 41 46 56 70 80 78 91 103 109 114 120 122 121 126 129 123 136 131 130 112 130 135 98 98 101 89 76 83 87
79 45 33 13 5 -3 36 43 48 58 59 64 47 41 49 37 35 50 80 65 27 6 17 24 24 40 46 63 82 89 86 86 100 106 98 104 136 143 123 125 117 118 126 114 107 110 97 93 74 53 82 55 71 62
25 44 35 3 11 19 26 37 66 61 64 66 63 39 49 81 84 62 19 -18 -3 11 20 31 34 55 92 96 89 92 85 88 106 131 118 114 108 91 111 113 115 96 73 70 96 87 95 69 61 75 69 60 73 64
3 42 39 26 35 36 40 45 41 58 76 73 73 75 86 74 38 -14 -30 10 28 40 42 55 77 95 103 94 107 111 103 87 101 143 125 112 118 128 126 113 116 144 98 82 80 70 72 76 59 57 42 50 69 45
3 18 36 81 90 76 85 104 123 98 77 49 -9 -7 -0 5 -24 -19 44 49 80 86 90 84 77 106 128 120 118 104 101 120 161 162 122 113 110 110 122 136 144 136 90 79 73 74 73 73 59 51 45 44 51 64
25 68 72 93 98 126 134 132 85 51 42 68 8 6 -26 -21 -7 29 67 84 102 106 133 152 149 136 128 113 105 108 114 109 98 92 91 89 72 74 82 89 90 94 77 75 67 58 55 57 49 42 43 49 51 45
77 94 108 167 145 138 127 95 56 46 104 83 -17 -12 -4 17 53 96 89 85 83 91 112 125 121 108 110 110 117 118 118 111 131 141 126 115 103 117 85 84 83 81 67 54 71 59 60 53 49 47 43 40 42 43
129 123 107 136 135 100 118 103 30 45 59 59 65 109 163 170 135 83 83 76 85 103 105 103 91 94 108 115 130 135 116 109 103 114 107 127 132 108 93 89 82 73 61 62 57 53 51 57 46 50 65 49 47 52
120 126 129 134 125 97 73 105 139 123 87 75 76 124 136 141 145 158 118 92 96 96 103 113 111 107 112 121 130 121 143 94 85 93 92 96 93 100 97 73 68 56 55 56 55 51 58 51 48 49 52 60 61 59
127 99 98 149 120 58 163 132 165 142 150 172 179 147 139 135 123 73 51 72 75 105 98 94 107 130 123 122 122 131 129 96 84 81 83 83 90 75 66 60 54 51 56 47 44 50 53 52 52 52 53 54 61 66
117 112 112 164 170 125 114 159 174 179 182 178 155 136 122 112 110 68 56 99 132 108 122 125 128 128 126 121 111 102 103 97 97 90 86 83 75 60 46 49 50 47 49 46 45 49 51 51 57 56 54 56 56 59

GFSWCAN_con_3kmhel_075.txt.gz
Helicity
14 20 28 23 17 20 10 5 6 8 1 -18 -14 17 44 4 33 19 34 85 75 8 -12 28 22 66 112 77 78 56 22 47 67 68 47 18 -3 13 12 13 46 106 43 76 19 -10 32 30 35 54 81 83 76 98
16 25 24 32 31 25 27 24 31 11 -6 -23 -16 -11 17 10 20 69 16 76 43 36 20 25 24 7 25 24 10 11 4 2 77 50 44 -4 3 -16 -13 26 65 18 74 66 41 6 89 140 106 142 211 179 133 136
8 15 23 33 39 53 88 93 52 46 43 29 -7 -11 -7 21 18 66 47 98 107 -12 -64 -64 3 94 32 11 -8 57 58 41 48 40 -16 -66 -18 -12 20 20 36 -3 27 30 60 142 248 326 401 362 263 161 158 155
12 31 39 50 62 58 43 8 5 10 11 17 23 6 -9 7 18 49 67 19 9 51 -57 9 -11 23 4 -7 -37 -23 -3 -1 31 28 -33 -4 -19 24 17 23 -30 118 115 44 114 261 646 557 356 226 221 199 145 100
41 46 72 69 34 27 18 4 -1 15 19 28 13 17 4 1 17 -4 50 18 2 50 6 -7 -32 1 30 19 -3 -60 -19 -9 36 38 -0 2 -7 -9 -42 32 123 199 262 103 132 79 143 109 190 148 114 71 76 60
61 88 49 21 19 13 11 13 23 26 27 28 9 5 14 22 28 134 162 28 42 62 6 8 47 118 86 10 46 -14 11 14 1 -10 4 -6 -16 5 10 94 102 141 102 203 109 79 49 -2 90 80 63 82 86 94
69 51 18 7 2 4 14 16 32 39 43 25 27 16 32 50 147 156 90 44 101 165 21 44 89 50 44 71 67 31 28 8 -13 -11 -10 1 -30 -8 7 7 85 124 129 191 88 16 49 57 40 67 53 71 77 73
30 20 15 9 21 36 21 22 35 35 23 20 6 23 57 126 165 168 121 51 197 200 18 39 -2 48 75 48 35 63 37 32 -15 12 -15 4 5 27 8 19 7 36 58 146 100 90 29 3 51 94 133 81 79 68
21 -10 10 7 7 27 27 42 61 33 2 55 90 147 382 214 121 133 108 47 137 84 14 27 78 52 49 45 39 95 58 19 10 -5 9 26 22 31 38 33 33 47 59 79 86 116 112 119 100 105 125 114 76 50
6 8 7 9 4 15 32 43 41 45 144 296 296 219 169 128 133 140 147 59 59 28 19 22 24 40 29 76 86 63 47 11 -10 10 33 47 43 90 65 82 75 67 74 77 78 83 81 74 74 82 92 104 102 87
-3 16 -4 7 16 9 2 21 83 321 279 270 290 227 162 129 147 111 61 55 24 1 -0 -2 -3 19 60 73 85 65 21 21 6 10 18 50 57 71 83 49 49 63 76 94 94 107 123 126 103 84 94 104 112 120
6 49 8 44 54 62 138 249 224 259 272 158 169 183 171 102 110 76 83 77 43 46 39 36 21 27 33 105 58 77 54 45 42 52 63 59 74 100 61 62 62 76 70 79 91 104 107 122 125 129 103 106 124 124
12 111 143 103 46 105 155 125 119 24 135 298 229 143 98 100 102 76 85 92 58 52 66 58 49 48 53 41 49 72 34 29 40 47 62 84 116 101 69 56 63 74 77 78 81 84 107 126 136 121 117 119 121 134
56 41 120 210 237 141 100 125 178 151 210 168 147 133 116 92 92 85 111 103 74 76 79 100 94 62 72 74 70 53 79 80 -71 74 72 89 63 49 77 62 57 49 54 69 79 87 96 99 107 107 100 84 87 99
35 109 94 101 94 165 183 190 185 101 177 137 129 89 57 52 64 61 82 105 123 99 128 133 118 69 80 55 44 40 52 59 67 75 81 91 65 50 48 58 66 72 70 68 59 52 51 45 48 52 46 47 51 57
93 183 109 36 42 117 116 192 178 182 154 139 99 74 58 58 111 107 71 91 122 147 144 118 134 101 87 77 68 90 74 47 36 55 86 101 122 111 104 89 84 66 48 34 24 22 23 30 27 35 49 61 63 67
60 80 48 26 67 54 6 79 113 67 85 106 105 147 132 95 85 99 121 122 120 131 142 135 130 116 91 98 76 78 65 99 107 118 121 121 118 99 81 64 42 32 31 33 29 33 28 21 20 34 62 23 23 12
13 7 -42 -36 21 105 115 67 64 78 41 101 78 101 120 135 109 136 164 206 148 147 129 102 74 70 62 36 55 88 142 174 144 128 109 93 73 50 42 58 60 59 48 36 40 53 55 45 57 54 40 41 31 16
-3 -21 -51 -36 7 33 17 39 15 -14 24 67 82 105 129 123 137 172 160 153 142 151 91 35 22 45 41 57 132 128 113 117 136 146 125 75 62 61 68 77 85 91 97 102 104 92 106 155 168 172 181 151 135 147
28 11 1 38 16 30 42 39 27 16 47 52 83 98 109 113 95 117 162 152 127 83 40 40 44 72 61 93 104 108 99 95 87 75 53 42 57 78 63 72 81 80 90 96 133 152 129 150 127 140 164 196 219 192
24 -14 -8 19 42 33 31 41 53 76 72 63 59 76 73 81 103 109 114 111 60 43 16 35 107 153 165 156 119 79 27 -10 1 30 64 83 71 89 97 99 120 141 159 162 141 168 198 198 171 112 123 134 126 114
35 6 25 33 23 22 27 39 49 63 65 71 67 64 61 67 65 68 61 58 40 71 77 94 108 93 87 63 43 46 67 143 156 123 115 105 115 139 155 150 156 164 174 187 167 170 150 127 136 138 116 88 74 77
61 48 43 28 24 32 52 92 85 78 49 48 64 46 39 39 39 27 18 59 73 79 78 59 47 55 82 90 112 101 89 124 145 137 120 120 136 140 158 170 180 207 181 155 128 116 107 98 112 111 102 93 81 71
77 50 40 30 24 17 46 44 53 54 55 54 32 28 35 25 21 15 31 53 46 -7 -2 11 29 51 59 85 104 103 83 103 134 147 93 121 154 143 126 118 122 129 134 111 118 118 108 87 86 87 78 80 81 77
29 70 32 20 21 15 20 34 44 36 38 41 32 30 34 33 21 18 12 -19 -20 -14 -4 6 8 48 108 96 99 129 141 102 123 163 152 132 111 115 138 126 118 109 99 135 133 97 77 62 74 86 67 71 64 55
11 56 33 32 47 22 27 33 32 48 67 55 37 33 55 48 30 -13 -54 -11 5 10 20 48 65 71 87 86 123 125 125 124 142 172 139 138 156 182 174 152 150 109 86 93 105 118 116 95 83 72 55 55 56 58
13 32 46 68 79 69 58 87 112 65 41 28 32 33 8 23 28 -31 15 29 62 59 83 83 106 164 168 173 148 117 125 167 174 146 130 131 126 118 128 156 153 113 109 106 112 102 102 102 100 93 76 63 63 61
18 58 60 103 94 138 89 104 72 51 41 86 55 51 50 7 -34 7 83 163 188 204 238 243 208 179 155 126 109 119 129 125 146 149 132 103 74 86 90 94 102 114 101 91 87 85 93 88 80 74 67 59 56 63
34 70 86 167 114 98 100 90 61 57 92 119 43 35 9 -15 50 167 154 136 129 159 174 172 160 160 185 186 174 164 156 134 119 125 125 135 117 76 70 81 80 88 77 78 57 63 74 77 72 70 74 74 66 55
76 81 74 110 111 101 102 61 68 77 102 54 41 102 232 198 138 66 67 71 95 107 92 91 90 109 115 127 135 145 141 142 160 169 172 163 111 114 139 115 104 87 76 76 71 68 76 61 61 66 74 72 73 77
92 93 106 123 124 111 67 57 68 111 134 164 141 197 236 208 277 250 188 129 119 116 134 156 172 137 131 116 120 136 133 101 116 134 128 124 125 100 86 84 72 71 68 69 65 65 67 66 65 62 61 60 60 72
91 80 81 150 109 76 144 112 126 82 84 101 123 143 164 170 150 92 73 74 37 72 87 130 140 117 106 123 144 150 146 115 117 110 128 127 116 98 76 57 56 61 65 59 55 59 65 68 64 63 64 59 59 63
115 109 115 157 134 95 105 128 144 153 174 184 177 128 129 126 127 78 45 92 110 142 159 145 138 136 132 130 130 124 121 102 101 104 101 91 81 69 62 55 53 64 63 54 48 53 52 55 65 67 68 71 72 74

GFSWCAN_con_3kmhel_081.txt.gz
Helicity
29 42 30 41 38 12 -2 9 -4 -12 -0 8 -15 -23 -30 -12 3 97 124 26 63 41 17 -2 -5 10 26 16 33 87 64 63 36 50 24 27 40 35 38 28 32 5 10 31 43 7 -11 35 -19 -14 -27 24 131 173
37 34 38 34 21 11 1 -12 -31 -4 18 17 -2 -14 -25 -13 -2 104 120 97 93 46 18 11 4 -10 -2 27 21 9 44 71 24 19 28 42 22 22 29 57 52 7 91 46 38 46 70 16 69 85 38 99 58 50
35 32 29 15 7 -3 -13 -30 -10 37 48 46 15 -13 -17 -14 7 93 95 145 106 32 16 18 20 41 44 50 34 -12 12 -45 119 34 30 25 19 -3 -23 14 -31 23 149 91 84 142 197 159 225 280 172 202 102 78
25 26 17 7 -3 -4 -20 5 44 60 58 54 26 22 5 -2 2 51 116 138 122 54 1 30 25 51 27 4 7 41 16 -1 -26 30 13 9 10 -5 -10 -1 -37 3 167 120 94 46 189 313 299 219 253 185 103 99
33 23 9 4 -3 -16 -4 46 52 47 33 34 14 17 21 24 6 21 136 128 119 61 43 102 92 81 21 7 1 2 -15 -11 -32 44 45 15 -8 -5 -36 -23 -16 75 131 132 81 184 104 232 127 73 86 72 36 35
28 19 16 -0 -13 -17 48 42 32 23 29 37 13 -9 26 19 8 11 60 18 70 55 18 105 84 71 67 36 15 8 4 16 -5 50 47 27 -0 -33 -31 -26 -5 74 266 216 135 96 70 23 25 13 9 10 3 33
31 26 4 -13 13 51 52 25 9 14 28 24 13 -9 25 26 43 74 20 19 137 101 38 46 51 59 38 32 25 33 35 15 -9 7 46 30 -3 15 2 1 9 79 72 83 36 19 60 47 10 11 -1 1 31 51
37 36 40 54 70 43 21 -5 3 1 19 20 -12 -1 35 69 116 51 84 49 145 166 68 27 36 39 26 51 68 50 46 17 -0 -1 9 20 11 -2 5 22 25 45 35 38 33 38 27 41 50 30 20 31 50 57
60 58 69 67 44 17 1 -0 31 20 7 12 6 52 162 158 125 68 78 144 127 93 34 24 39 52 51 58 43 69 47 18 7 4 2 5 9 20 5 14 21 36 28 21 27 46 60 69 58 55 50 51 41 50
79 89 52 16 -0 -9 39 42 45 26 16 70 142 127 91 118 128 135 132 89 85 66 21 17 26 57 16 77 62 29 20 9 -3 2 20 33 30 67 55 39 23 28 35 53 36 62 51 66 63 69 80 80 77 83
83 43 37 18 12 14 19 31 40 8 46 209 109 113 104 229 174 157 128 87 66 10 1 46 51 123 40 51 31 33 20 15 2 -1 2 18 22 44 53 46 32 39 55 63 79 92 97 83 76 80 99 111 107 105
31 46 40 26 -4 4 14 57 56 114 222 178 158 263 260 158 117 110 114 91 27 18 15 28 46 71 53 27 46 31 34 28 12 32 34 32 36 56 38 41 48 51 56 81 80 67 71 80 77 88 90 93 90 87
24 19 13 20 26 26 34 69 227 179 192 255 226 142 142 152 121 73 62 61 32 16 13 -1 31 37 51 35 46 38 22 20 27 43 22 16 50 57 53 41 42 47 45 44 42 42 54 71 80 65 61 49 53 59
19 73 100 111 204 194 155 71 182 357 353 229 219 181 123 92 56 20 28 45 50 37 26 36 48 42 28 56 18 22 24 20 13 19 2 43 41 47 38 32 39 36 44 48 51 55 58 47 32 18 5 -13 12 23
178 171 143 153 191 273 241 265 240 274 236 232 186 163 74 74 87 66 75 77 85 77 60 59 66 54 77 59 62 18 19 14 2 20 40 78 65 56 49 56 57 60 65 72 63 63 49 35 30 31 24 29 37 46
105 148 123 113 143 194 239 332 307 233 161 154 118 66 87 111 123 109 114 121 106 130 103 74 50 55 65 58 43 16 9 -13 -4 21 42 74 57 53 75 73 74 65 75 63 42 23 23 30 35 32 42 57 54 53
91 74 47 38 162 175 183 200 165 193 136 125 87 97 83 121 100 107 121 160 154 101 71 60 44 25 26 27 11 36 -17 30 38 69 91 81 63 70 86 84 75 56 42 31 19 13 15 18 32 44 55 28 48 66
134 82 58 57 63 115 132 151 115 71 64 97 64 89 92 114 94 102 117 145 124 86 85 43 40 26 -24 -52 -29 41 92 99 102 74 66 79 89 85 72 42 25 33 39 37 44 41 55 63 67 69 71 71 85 80
86 105 104 86 83 76 88 62 47 22 38 59 73 79 91 90 115 119 106 126 116 111 80 61 42 16 17 32 19 63 55 67 68 70 74 73 55 37 39 46 50 53 58 61 75 89 98 106 105 102 98 90 110 111
67 54 98 142 142 54 78 92 58 53 82 76 81 92 76 85 101 149 160 130 82 77 70 46 19 27 24 2 2 41 64 78 73 60 41 30 38 61 59 63 73 93 119 125 132 132 134 130 119 106 101 108 115 110
125 71 122 183 194 117 68 82 67 52 80 78 73 79 77 82 87 96 106 118 77 72 47 4 -1 30 64 95 97 96 62 43 33 36 45 56 34 73 84 79 88 102 121 126 149 153 148 121 96 86 98 93 95 91
24 45 104 125 124 135 85 125 73 85 92 95 111 108 95 93 98 97 82 62 50 47 24 21 44 67 92 40 13 8 20 44 54 83 95 102 99 108 102 95 121 133 144 139 148 134 107 98 91 92 95 86 92 93
35 57 57 44 36 41 69 130 113 115 75 98 120 110 100 86 72 75 45 39 47 77 100 114 120 98 76 61 70 54 48 80 84 97 105 113 113 111 118 124 129 159 162 127 101 106 94 80 96 105 97 104 103 103
59 52 39 26 24 35 52 51 55 63 78 84 61 50 59 31 50 41 24 54 94 107 111 79 63 77 77 63 69 64 72 101 123 133 116 133 129 122 137 150 142 123 102 101 104 112 108 98 91 103 103 105 104 99
35 67 27 31 41 32 30 50 57 41 56 54 41 29 40 29 16 8 -3 49 79 54 30 49 52 51 82 77 85 98 70 96 124 141 94 98 147 168 173 167 157 133 96 128 113 107 108 110 120 115 105 99 89 88
39 74 30 31 50 35 37 31 30 29 73 42 25 28 32 11 12 9 -1 6 -4 -12 5 31 59 77 79 72 96 90 75 89 127 136 107 102 119 157 159 170 166 134 109 106 118 120 121 126 130 128 114 99 93 97
23 51 54 59 68 58 43 56 69 41 34 10 22 25 22 21 27 38 69 83 -53 -19 6 33 64 83 98 108 114 112 116 99 100 117 127 139 136 116 131 168 155 122 116 114 113 112 110 107 106 103 99 92 88 93
15 47 20 83 48 71 31 59 45 42 39 48 40 35 17 14 40 66 59 68 73 101 127 135 128 131 128 112 113 160 192 177 182 176 177 181 168 162 156 149 137 129 113 99 104 110 102 101 96 89 87 84 85 81
30 66 49 92 67 50 47 45 48 59 73 62 47 40 56 61 85 100 111 105 138 189 187 185 186 183 190 177 170 161 135 131 159 142 138 127 132 123 111 119 122 116 104 103 86 89 95 94 87 83 74 78 72 85
47 58 45 61 44 31 64 60 78 84 79 77 44 86 120 130 218 192 153 160 173 176 167 156 128 137 143 162 163 158 120 74 71 112 122 124 119 119 113 111 109 98 92 104 100 86 93 98 91 95 90 83 85 83
50 70 67 73 57 64 48 99 124 115 111 123 177 188 218 224 274 289 239 173 162 165 181 164 139 110 127 115 124 135 112 96 112 117 124 142 139 118 103 94 84 82 90 95 96 91 86 83 81 76 70 67 61 68
82 63 65 72 94 64 124 108 109 163 193 181 187 182 198 187 185 167 170 123 152 158 115 107 113 79 66 83 83 79 100 125 116 120 135 127 117 99 94 88 84 85 96 96 91 87 86 82 74 74 70 56 54 59
96 100 103 150 121 91 104 98 105 123 154 127 123 110 114 116 104 90 86 100 105 92 82 95 119 111 97 108 116 124 130 122 117 118 113 107 99 89 82 80 82 92 96 92 87 82 80 78 76 71 62 61 59 67